{"data":{"norad_id":59457,"epoch":"2026-05-25T04:33:35.665632Z","epoch_age_seconds":69043,"freshness":"FRESH","line1":"1 59457U 24068C   26145.18999613  .00005008  00000+0  19137-3 0  9990","line2":"2 59457  42.9981 318.9297 0000573 288.9069  71.1720 15.27578564120260","mean_motion":15.27578564,"eccentricity":5.73e-5,"inclination_deg":42.9981,"raan_deg":318.9297,"arg_perigee_deg":288.9069,"mean_anomaly_deg":71.172,"bstar":0.00019137,"rev_number":12026,"period_min":94.266837329095,"perigee_km":482.66024973393,"apogee_km":483.44654215331,"semimajor_km":6861.1903959436,"source":"CELESTRAK","updated_at":"2026-05-25T13:38:18.948155Z"}}